STARLINK-1575 (46349 NORAD) Tracking and Keplerian Element Data

This shows tracking and keplerian element data for the satellite.

Feedback or suggestion? Click here.




ElementValue
Catalog46349
NameSTARLINK-1575
Epoch Orbit181
Epoch Day335.91670139
Epoch Year2020
RAAN356.3788
Inclination52.9971
Eccentricity0.0002332
Argument of Perigee17.3807
Mean Anonmoly84.2996
Mean Motion15.62743843
Decay Rate-0.00011754
L11 46349U 20062AA 20335.91670139 -.00011754 00000-0 -12273-3 0 9993
L22 46349 52.9971 356.3788 0002332 17.3807 84.2996 15.62743843 1818

Live tracking and technical data element details for STARLINK-1575 (NORAD 46349). STARLINK-1575 can be tracked NOW for your location showing map with azimuth and elevation plus other details from your city location.

Track the satellite on the map from your city or location and see movement details for azimuth, elevation, latitude, longitude, range, height, and movement on the map or in text.







IsCatalogInMostPopularTable: catalog: 46349, numindb: 20
Update: records affected: 1



GetName: 46349 STARLINK-1575

Hit Count: updated at: Wed, 02 Dec 2020 06:07:19 GMT